Tracking 19636 objects as of 24-May-2019
HD Live streaming from Space Station
objects crossing your sky now

OPS 7869 (DMSP 4B F1)

Track OPS 7869 (DMSP 4B F1) now!
10-day predictions
OPS 7869 (DMSP 4B F1) is classified as:


NORAD ID: 3266
Int'l Code: 1968-042A
Perigee: 809.8 km
Apogee: 887.4 km
Inclination: 98.8 °
Period: 101.7 minutes
Semi major axis: 7219 km
RCS: 0.6432 m2 (medium)
Launch date: May 23, 1968
Source: United States (US)
Launch site: AIR FORCE WESTERN TEST RANGE (AFWTR)
aabbcc
Your satellite tracking list
Your tracking list is empty




NASA's NSSDC Master Catalog

Two Line Element Set (TLE):
1  3266U 68042A   19143.67767143 -.00000030 +00000-0 +71363-5 0  9995
2  3266 098.8431 006.3443 0053755 130.8932 229.6916 14.15258763547938
Source of the keplerian elements: AFSPC